Weather History for MMCN - September, 2012

Change the Weather History Date:

Thursday, September 20, 2012

  Actual Average Record
Temperature  
Mean Temperature 86 °F -  
Max Temperature 102 °F 95 °F 102 °F (2012)
Min Temperature 71 °F 76 °F 68 °F (1996)
Cooling Degree Days 22    
Growing Degree Days 36 (Base 50)    
Moisture  
Dew Point 69 °F    
Average Humidity 53    
Maximum Humidity 83    
Minimum Humidity 29    
Precipitation  
Precipitation 0.00 in - - ()
Sea Level Pressure  
Sea Level Pressure 29.81 in    
Wind  
Wind Speed 3 mph ()    
Max Wind Speed 16 mph    
Max Gust Speed -    
Visibility 9.9 miles    
Events      
Averages and records for this station are not official NWS values.
T = Trace of Precipitation, MM = Missing Value Source: Averaged Metar Reports

Daily Weather History Graph

Daily Weather History Graph

Search for Another Location

Airport or City:

Trip Planner

Search our weather history database for the weather conditions in past years. The results will help you decide how hot, cold, wet, or windy it might be!

Date:

Astronomy

Sep. 20, 2012 Rise Set
Actual Time 6:07 AM MST 6:17 PM MST
Civil Twilight 5:43 AM MST 6:40 PM MST
Nautical Twilight 5:16 AM MST 7:07 PM MST
Astronomical Twilight 4:49 AM MST 7:35 PM MST
Moon 10:58 AM MST (9/20) 9:54 PM MST (9/20)
Length of Visible Light 12h 56m
Length of Day
12h 10m
Waxing Crescent, 28% of the Moon is Illuminated
Sep 20
Waxing Crescent
Sep 22
First Quarter
Sep 29
Full
Oct 8
Last Quarter
Oct 15
New

Hourly Weather History & Observations

Time (MST) Temp. Heat Index Dew Point Humidity Pressure Visibility Wind Dir Wind Speed Gust Speed Precip Events Conditions
4:03 AM 75.2 °F - 66.2 °F 73% 29.81 in 10.0 mi Calm Calm - N/A   Clear
4:41 AM 73.4 °F - 66.2 °F 78% 29.81 in 10.0 mi Calm Calm - N/A   Clear
4:50 AM 74 °F - 69 °F 80% 29.83 in 3 mi WSW 2.2 mph - -  
5:44 AM 73.4 °F - 68.0 °F 83% 29.82 in 10.0 mi SSE 2.3 mph - N/A   Scattered Clouds
6:43 AM 73.4 °F - 68.0 °F 83% 29.84 in 10.0 mi SSE 3.5 mph - N/A   Scattered Clouds
7:42 AM 78.8 °F - 68.0 °F 69% 29.85 in 10.0 mi Calm Calm - N/A   Partly Cloudy
7:50 AM 78 °F - 73 °F 82% 29.86 in 12 mi ESE 4.5 mph - -  
8:46 AM 86.0 °F 89.4 °F 68.0 °F 55% 29.86 in 10.0 mi East 2.3 mph - N/A   Clear
9:45 AM 89.6 °F 93.4 °F 68.0 °F 49% 29.86 in 8.0 mi SE 2.3 mph - N/A   Clear
10:47 AM 93.2 °F 97.7 °F 68.0 °F 44% 29.85 in 8.0 mi South 4.6 mph - N/A   Partly Cloudy
10:50 AM 97 °F - 74 °F 39% 29.87 in 12 mi SSW 6.7 mph - -  
11:41 AM 96.8 °F 101.8 °F 68.0 °F 39% 29.83 in 10.0 mi South 3.5 mph - N/A   Partly Cloudy
12:45 PM 96.8 °F 99.0 °F 64.4 °F 34% 29.81 in 10.0 mi NNE 3.5 mph - N/A   Partly Cloudy
1:46 PM 100.4 °F 102.4 °F 62.6 °F 29% 29.79 in 10.0 mi West 2.3 mph - N/A   Clear
1:50 PM 102 °F - 76 °F 34% 29.81 in 12 mi SW 11.2 mph - -  
2:43 PM 98.6 °F 105.5 °F 69.8 °F 39% 29.76 in 10.0 mi South 11.5 mph - N/A   Partly Cloudy
3:45 PM 96.8 °F 101.8 °F 68.0 °F 39% 29.76 in 10.0 mi SW 15.0 mph - N/A   Partly Cloudy
4:42 PM 96.8 °F 100.7 °F 66.2 °F 37% 29.75 in 10.0 mi WSW 10.4 mph - N/A   Clear
4:50 PM 97 °F - 72 °F 35% 29.77 in 12 mi SW 15.7 mph - -  
5:41 PM 93.2 °F 97.7 °F 68.0 °F 44% 29.75 in 10.0 mi WSW 4.6 mph - N/A   Clear
6:45 PM 89.6 °F 93.4 °F 68.0 °F 49% 29.77 in 10.0 mi WSW 3.5 mph - N/A   Clear
7:41 PM 86.0 °F 90.4 °F 69.8 °F 58% 29.79 in 10.0 mi SSW 2.3 mph - N/A   Clear